| time (UTC) | temp C | wind direction | speed KPH | gust KPH | rain 1hr cm | rain 24hr cm | rain mn cm | humidity % | barometer mb |
| 20260502223517 | 20 | 163 | 0.0 | 8.0 | 0.00 | 0.64 | 0.64 | 94 | 1010.0 |
| 20260502223034 | 20 | 0 | 0.0 | 11.3 | 0.00 | 0.64 | 0.64 | 94 | 1010.0 |
| 20260502222516 | 20 | 232 | 1.6 | 11.3 | 0.00 | 0.64 | 0.64 | 94 | 1010.2 |
| 20260502222017 | 20 | 225 | 4.8 | 11.3 | 0.00 | 0.64 | 0.64 | 94 | 1010.1 |
| 20260502221538 | 20 | 257 | 0.0 | 11.3 | 0.00 | 0.64 | 0.64 | 94 | 1010.1 |
| 20260502221016 | 20 | 0 | 0.0 | 11.3 | 0.00 | 0.64 | 0.64 | 94 | 1009.9 |
| 20260502220516 | 20 | 239 | 3.2 | 11.3 | 0.00 | 0.64 | 0.64 | 94 | 1009.8 |
| 20260502220046 | 20 | 0 | 1.6 | 11.3 | 0.00 | 0.64 | 0.64 | 94 | 1009.4 |
| 20260502215522 | 20 | 167 | 4.8 | 9.7 | 0.00 | 0.64 | 0.64 | 94 | 1009.3 |
| 20260502215021 | 20 | 0 | 1.6 | 12.9 | 0.00 | 0.64 | 0.64 | 94 | 1009.5 |
| 20260502214538 | 20 | 108 | 1.6 | 14.5 | 0.00 | 0.64 | 0.64 | 94 | 1008.9 |
| 20260502214016 | 20 | 175 | 4.8 | 14.5 | 0.00 | 0.64 | 0.64 | 94 | 1009.1 |
| 20260502213516 | 20 | 167 | 3.2 | 9.7 | 0.00 | 0.64 | 0.64 | 94 | 1009.1 |
| 20260502213040 | 20 | 0 | 0.0 | 9.7 | 0.00 | 0.64 | 0.64 | 94 | 1009.6 |
| 20260502212517 | 20 | 0 | 0.0 | 9.7 | 0.00 | 0.64 | 0.64 | 94 | 1009.4 |
| 20260502212016 | 20 | 160 | 1.6 | 6.4 | 0.00 | 0.64 | 0.64 | 94 | 1008.9 |
| 20260502211536 | 20 | 0 | 0.0 | 4.8 | 0.00 | 0.64 | 0.64 | 94 | 1009.1 |
| 20260502211017 | 20 | 0 | 0.0 | 8.0 | 0.00 | 0.64 | 0.64 | 94 | 1009.3 |
| 20260502210516 | 20 | 207 | 0.0 | 8.0 | 0.00 | 0.64 | 0.64 | 94 | 1009.5 |
| 20260502210040 | 20 | 240 | 1.6 | 11.3 | 0.03 | 0.64 | 0.64 | 94 | 1009.6 |
| 20260502205516 | 20 | 0 | 0.0 | 11.3 | 0.05 | 0.64 | 0.64 | 94 | 1009.6 |
| 20260502205019 | 20 | 0 | 1.6 | 11.3 | 0.08 | 0.64 | 0.64 | 94 | 1009.5 |
| 20260502204542 | 20 | 261 | 0.0 | 16.1 | 0.10 | 0.64 | 0.64 | 94 | 1009.8 |
| 20260502204016 | 20 | 212 | 3.2 | 16.1 | 0.15 | 0.64 | 0.64 | 94 | 1009.8 |
| 20260502203517 | 20 | 227 | 0.0 | 11.3 | 0.18 | 0.64 | 0.64 | 94 | 1009.5 |
| 20260502203041 | 20 | 248 | 4.8 | 11.3 | 0.20 | 0.64 | 0.64 | 94 | 1009.7 |
| 20260502202516 | 20 | 235 | 0.0 | 11.3 | 0.25 | 0.64 | 0.64 | 94 | 1009.5 |
| 20260502202016 | 20 | 257 | 4.8 | 11.3 | 0.25 | 0.64 | 0.64 | 94 | 1009.3 |
| 20260502201544 | 20 | 269 | 3.2 | 9.7 | 0.25 | 0.64 | 0.64 | 93 | 1009.2 |
| 20260502201016 | 20 | 0 | 1.6 | 9.7 | 0.25 | 0.64 | 0.64 | 93 | 1008.9 |
| 20260502200518 | 20 | 0 | 0.0 | 11.3 | 0.28 | 0.64 | 0.64 | 93 | 1008.8 |
| 20260502200041 | 20 | 0 | 1.6 | 11.3 | 0.28 | 0.61 | 0.61 | 93 | 1009.0 |
| 20260502195516 | 20 | 0 | 0.0 | 9.7 | 0.25 | 0.58 | 0.58 | 93 | 1009.5 |
| 20260502195016 | 20 | 45 | 0.0 | 12.9 | 0.23 | 0.56 | 0.56 | 92 | 1009.8 |
| 20260502194536 | 20 | 229 | 0.0 | 14.5 | 0.30 | 0.51 | 0.51 | 92 | 1010.4 |
| 20260502194019 | 20 | 0 | 3.2 | 17.7 | 0.36 | 0.48 | 0.48 | 91 | 1010.5 |
| 20260502193521 | 20 | 223 | 6.4 | 20.9 | 0.38 | 0.46 | 0.46 | 91 | 1011.0 |
| 20260502193041 | 20 | 256 | 12.9 | 20.9 | 0.41 | 0.41 | 0.41 | 91 | 1010.8 |
| 20260502192520 | 20 | 257 | 11.3 | 17.7 | 0.38 | 0.38 | 0.38 | 90 | 1010.8 |
| 20260502192017 | 20 | 252 | 9.7 | 19.3 | 0.38 | 0.38 | 0.38 | 90 | 1011.0 |
| 20260502191545 | 20 | 258 | 11.3 | 29.0 | 0.38 | 0.38 | 0.38 | 89 | 1010.8 |
| 20260502191016 | 20 | 261 | 17.7 | 29.0 | 0.36 | 0.36 | 0.36 | 89 | 1010.8 |
| 20260502190518 | 20 | 250 | 14.5 | 25.7 | 0.36 | 0.36 | 0.36 | 89 | 1010.8 |
| 20260502190047 | 20 | 267 | 14.5 | 41.8 | 0.33 | 0.33 | 0.33 | 89 | 1010.8 |
| 20260502185516 | 20 | 271 | 19.3 | 41.8 | 0.33 | 0.33 | 0.33 | 88 | 1010.9 |
| 20260502185019 | 20 | 267 | 25.7 | 41.8 | 0.30 | 0.30 | 0.30 | 87 | 1011.1 |
| 20260502184538 | 20 | 273 | 27.4 | 46.7 | 0.20 | 0.20 | 0.20 | 86 | 1011.3 |
| 20260502184016 | 21 | 277 | 27.4 | 49.9 | 0.10 | 0.10 | 0.10 | 84 | 1011.3 |
| 20260502183520 | 21 | 260 | 33.8 | 75.6 | 0.08 | 0.08 | 0.08 | 80 | 1011.2 |
| 20260502183034 | 24 | 260 | 37.0 | 75.6 | 0.00 | 0.00 | 0.00 | 69 | 1011.4 |
| 20260502182519 | 28 | 265 | 20.9 | 40.2 | 0.00 | 0.00 | 0.00 | 69 | 1011.1 |
| 20260502182021 | 28 | 277 | 17.7 | 30.6 | 0.00 | 0.00 | 0.00 | 69 | 1010.3 |
| 20260502181541 | 28 | 250 | 14.5 | 29.0 | 0.00 | 0.00 | 0.00 | 68 | 1010.2 |
| 20260502181019 | 28 | 259 | 14.5 | 25.7 | 0.00 | 0.00 | 0.00 | 67 | 1010.2 |
| 20260502180520 | 28 | 274 | 11.3 | 30.6 | 0.00 | 0.00 | 0.00 | 67 | 1010.1 |
| 20260502170520 | 30 | 264 | 19.3 | 32.2 | 0.00 | 0.00 | 0.00 | 63 | 1009.9 |
| 20260502164019 | 30 | 282 | 17.7 | 37.0 | 0.00 | 0.00 | 0.00 | 62 | 1009.8 |
| 20260502163519 | 29 | 243 | 20.9 | 37.0 | 0.00 | 0.00 | 0.00 | 64 | 1010.1 |
| 20260502163046 | 29 | 229 | 9.7 | 29.0 | 0.00 | 0.00 | 0.00 | 65 | 1010.1 |
| 20260502162520 | 29 | 254 | 11.3 | 24.1 | 0.00 | 0.00 | 0.00 | 65 | 1010.1 |
| 20260502162023 | 28 | 232 | 6.4 | 24.1 | 0.00 | 0.00 | 0.00 | 66 | 1010.1 |
| 20260502161537 | 28 | 252 | 6.4 | 19.3 | 0.00 | 0.00 | 0.00 | 66 | 1010.1 |
| 20260502161017 | 28 | 234 | 8.0 | 20.9 | 0.00 | 0.00 | 0.00 | 66 | 1010.0 |
| 20260502160523 | 28 | 219 | 3.2 | 20.9 | 0.00 | 0.00 | 0.00 | 66 | 1010.0 |
| 20260502152017 | 28 | 212 | 6.4 | 22.5 | 0.00 | 0.00 | 0.00 | 68 | 1010.3 |
| 20260502151558 | 28 | 236 | 11.3 | 22.5 | 0.00 | 0.00 | 0.00 | 67 | 1010.3 |
| 20260502151017 | 28 | 313 | 3.2 | 19.3 | 0.00 | 0.00 | 0.00 | 68 | 1010.2 |
| 20260502150518 | 28 | 197 | 3.2 | 25.7 | 0.00 | 0.00 | 0.00 | 68 | 1010.1 |
| 20260502130517 | 22 | 0 | 3.2 | 14.5 | 0.00 | 0.00 | 0.00 | 90 | 1010.0 |
| 20260502123517 | 21 | 186 | 4.8 | 14.5 | 0.00 | 0.00 | 0.00 | 95 | 1009.3 |
| 20260502123035 | 21 | 159 | 4.8 | 11.3 | 0.00 | 0.00 | 0.00 | 95 | 1009.5 |
| 20260502122518 | 21 | 188 | 3.2 | 11.3 | 0.00 | 0.00 | 0.00 | 96 | 1009.5 |
| 20260502122018 | 21 | 190 | 4.8 | 11.3 | 0.00 | 0.00 | 0.00 | 96 | 1009.5 |
| 20260502121538 | 21 | 153 | 3.2 | 8.0 | 0.00 | 0.00 | 0.00 | 96 | 1009.5 |
| 20260502121018 | 20 | 197 | 1.6 | 6.4 | 0.00 | 0.00 | 0.00 | 96 | 1009.5 |
| 20260502120521 | 20 | 0 | 0.0 | 8.0 | 0.00 | 0.00 | 0.00 | 96 | 1009.5 |
| 20260502115517 | 20 | 184 | 1.6 | 9.7 | 0.00 | 0.00 | 0.00 | 96 | 1009.2 |
| 20260502115017 | 20 | 152 | 3.2 | 8.0 | 0.00 | 0.00 | 0.00 | 96 | 1009.1 |
| 20260502114540 | 20 | 150 | 1.6 | 6.4 | 0.00 | 0.00 | 0.00 | 96 | 1009.1 |
| 20260502114017 | 20 | 182 | 1.6 | 6.4 | 0.00 | 0.00 | 0.00 | 96 | 1009.2 |
| 20260502113517 | 20 | 160 | 1.6 | 6.4 | 0.00 | 0.00 | 0.00 | 96 | 1009.3 |
| 20260502113047 | 19 | 132 | 1.6 | 6.4 | 0.00 | 0.00 | 0.00 | 96 | 1009.1 |
| 20260502112517 | 19 | 136 | 0.0 | 8.0 | 0.00 | 0.00 | 0.00 | 96 | 1009.2 |
| 20260502112020 | 19 | 151 | 0.0 | 8.0 | 0.00 | 0.00 | 0.00 | 96 | 1009.3 |
| 20260502111535 | 19 | 175 | 0.0 | 1.6 | 0.00 | 0.00 | 0.00 | 96 | 1009.2 |
| 20260502111049 | 19 | 0 | 0.0 | 3.2 | 0.00 | 0.00 | 0.00 | 95 | 1009.3 |
| 20260502110517 | 19 | 0 | 0.0 | 4.8 | 0.00 | 0.00 | 0.00 | 95 | 1009.1 |
| 20260502110041 | 19 | 0 | 0.0 | 6.4 | 0.00 | 0.00 | 0.00 | 95 | 1008.9 |
| 20260502105521 | 19 | 161 | 1.6 | 6.4 | 0.00 | 0.00 | 0.00 | 95 | 1008.8 |
| 20260502105018 | 19 | 151 | 0.0 | 6.4 | 0.00 | 0.00 | 0.00 | 95 | 1008.9 |
| 20260502104538 | 19 | 0 | 0.0 | 6.4 | 0.00 | 0.00 | 0.00 | 95 | 1008.7 |
| 20260502104020 | 19 | 167 | 0.0 | 6.4 | 0.00 | 0.00 | 0.00 | 95 | 1008.6 |
| 20260502103517 | 19 | 0 | 0.0 | 6.4 | 0.00 | 0.00 | 0.00 | 95 | 1008.6 |
| 20260502103034 | 19 | 0 | 0.0 | 6.4 | 0.00 | 0.00 | 0.00 | 95 | 1008.6 |
| 20260502102518 | 19 | 0 | 0.0 | 6.4 | 0.00 | 0.00 | 0.00 | 95 | 1008.5 |
| 20260502102018 | 19 | 155 | 0.0 | 4.8 | 0.00 | 0.00 | 0.00 | 95 | 1008.5 |
| 20260502101537 | 19 | 0 | 0.0 | 4.8 | 0.00 | 0.00 | 0.00 | 95 | 1008.5 |
| 20260502101017 | 19 | 118 | 1.6 | 3.2 | 0.00 | 0.00 | 0.00 | 95 | 1008.4 |
| 20260502100517 | 18 | 133 | 0.0 | 3.2 | 0.00 | 0.00 | 0.00 | 95 | 1008.6 |
| 20260502091018 | 17 | 0 | 0.0 | 0.0 | 0.00 | 0.00 | 0.00 | 95 | 1009.4 |
| 20260502090517 | 17 | 0 | 0.0 | 0.0 | 0.00 | 0.00 | 0.00 | 94 | 1009.5 |
| 20260502090106 | 17 | 0 | 0.0 | 0.0 | 0.00 | 0.00 | 0.00 | 93 | 1009.6 |
| 20260502071017 | 18 | 0 | 0.0 | 0.0 | 0.00 | 0.00 | 0.00 | 94 | 1009.9 |
| 20260502070517 | 18 | 0 | 0.0 | 0.0 | 0.00 | 0.00 | 0.00 | 95 | 1009.9 |
| 20260502070048 | 17 | 0 | 0.0 | 0.0 | 0.00 | 0.00 | 0.00 | 94 | 1009.9 |
| 20260502065516 | 18 | 0 | 0.0 | 0.0 | 0.00 | 0.00 | 0.00 | 94 | 1010.0 |
| 20260502065016 | 18 | 0 | 0.0 | 0.0 | 0.00 | 0.00 | 0.00 | 94 | 1010.0 |
| 20260502064540 | 18 | 0 | 0.0 | 0.0 | 0.00 | 0.00 | 0.00 | 94 | 1010.1 |
| 20260502064017 | 18 | 0 | 0.0 | 0.0 | 0.00 | 0.00 | 0.00 | 95 | 1010.0 |
| 20260502063517 | 18 | 0 | 0.0 | 0.0 | 0.00 | 0.00 | 0.00 | 94 | 1010.1 |
| 20260502063040 | 18 | 0 | 0.0 | 0.0 | 0.00 | 0.00 | 0.00 | 94 | 1010.2 |
| 20260502062517 | 18 | 0 | 0.0 | 0.0 | 0.00 | 0.00 | 0.00 | 94 | 1010.2 |
| 20260502062019 | 18 | 0 | 0.0 | 0.0 | 0.00 | 0.00 | 0.00 | 94 | 1010.4 |
| 20260502061532 | 18 | 0 | 0.0 | 0.0 | 0.00 | 0.00 | 0.00 | 94 | 1010.5 |
| 20260502061021 | 18 | 0 | 0.0 | 0.0 | 0.00 | 0.00 | 0.00 | 94 | 1010.5 |
| 20260502060519 | 18 | 0 | 0.0 | 0.0 | 0.00 | 0.00 | 0.00 | 94 | 1010.7 |
| 20260502060042 | 18 | 0 | 0.0 | 0.0 | 0.00 | 0.00 | 0.00 | 94 | 1010.6 |
| 20260502055516 | 18 | 0 | 0.0 | 0.0 | 0.00 | 0.00 | 0.00 | 94 | 1010.5 |
| 20260502055018 | 18 | 0 | 0.0 | 0.0 | 0.00 | 0.00 | 0.00 | 95 | 1010.6 |
| 20260502054537 | 18 | 0 | 0.0 | 0.0 | 0.00 | 0.00 | 0.00 | 94 | 1010.7 |
| 20260502054018 | 18 | 0 | 0.0 | 0.0 | 0.00 | 0.00 | 0.00 | 95 | 1010.7 |
| 20260502053517 | 18 | 0 | 0.0 | 0.0 | 0.00 | 0.00 | 0.00 | 94 | 1010.8 |
| 20260502053036 | 18 | 0 | 0.0 | 0.0 | 0.00 | 0.00 | 0.00 | 94 | 1010.9 |
| 20260502052518 | 18 | 0 | 0.0 | 0.0 | 0.00 | 0.00 | 0.00 | 94 | 1010.8 |
| 20260502052018 | 18 | 0 | 0.0 | 0.0 | 0.00 | 0.00 | 0.00 | 94 | 1010.7 |
| 20260502051534 | 19 | 0 | 0.0 | 0.0 | 0.00 | 0.00 | 0.00 | 94 | 1010.8 |
| 20260502051020 | 18 | 0 | 0.0 | 0.0 | 0.00 | 0.00 | 0.00 | 94 | 1010.7 |
| 20260502050519 | 19 | 0 | 0.0 | 0.0 | 0.00 | 0.00 | 0.00 | 94 | 1010.7 |
| 20260502050040 | 19 | 0 | 0.0 | 0.0 | 0.00 | 0.00 | 0.00 | 94 | 1010.8 |
| 20260502045517 | 18 | 0 | 0.0 | 0.0 | 0.00 | 0.00 | 0.00 | 93 | 1010.9 |
| 20260502045020 | 19 | 0 | 0.0 | 0.0 | 0.00 | 0.00 | 0.00 | 94 | 1010.8 |
| 20260502044541 | 19 | 0 | 0.0 | 0.0 | 0.00 | 0.00 | 0.00 | 93 | 1010.9 |
| 20260502044016 | 19 | 0 | 0.0 | 0.0 | 0.00 | 0.00 | 0.00 | 93 | 1010.9 |
| 20260502043516 | 19 | 0 | 0.0 | 0.0 | 0.00 | 0.00 | 0.00 | 93 | 1010.7 |
| 20260502043042 | 19 | 0 | 0.0 | 0.0 | 0.00 | 0.00 | 0.00 | 93 | 1010.8 |
| 20260502042520 | 19 | 0 | 0.0 | 0.0 | 0.00 | 0.00 | 0.00 | 93 | 1010.8 |
| 20260502042019 | 19 | 0 | 0.0 | 0.0 | 0.00 | 0.00 | 0.00 | 93 | 1010.7 |
| 20260502041545 | 19 | 0 | 0.0 | 0.0 | 0.00 | 0.00 | 0.00 | 92 | 1010.6 |
| 20260502041022 | 20 | 0 | 0.0 | 0.0 | 0.00 | 0.00 | 0.00 | 91 | 1010.7 |
| 20260502040517 | 20 | 0 | 0.0 | 0.0 | 0.00 | 0.00 | 0.00 | 92 | 1010.6 |
| 20260502040036 | 20 | 0 | 0.0 | 0.0 | 0.00 | 0.00 | 0.00 | 91 | 1010.6 |
| 20260502035517 | 20 | 0 | 0.0 | 0.0 | 0.00 | 0.00 | 0.00 | 91 | 1010.7 |
| 20260502035017 | 20 | 0 | 0.0 | 0.0 | 0.00 | 0.00 | 0.00 | 91 | 1010.7 |
| 20260502034535 | 20 | 0 | 0.0 | 0.0 | 0.00 | 0.00 | 0.00 | 92 | 1010.7 |
| 20260502034019 | 20 | 0 | 0.0 | 0.0 | 0.00 | 0.00 | 0.00 | 91 | 1010.7 |
| 20260502033516 | 20 | 0 | 0.0 | 0.0 | 0.00 | 0.00 | 0.00 | 91 | 1010.6 |
| 20260502033034 | 20 | 0 | 0.0 | 0.0 | 0.00 | 0.00 | 0.00 | 90 | 1010.7 |
| 20260502032516 | 20 | 0 | 0.0 | 0.0 | 0.00 | 0.00 | 0.00 | 92 | 1010.4 |
| 20260502032016 | 20 | 0 | 0.0 | 0.0 | 0.00 | 0.00 | 0.00 | 90 | 1010.6 |
| 20260502031541 | 20 | 0 | 0.0 | 0.0 | 0.00 | 0.00 | 0.00 | 90 | 1010.7 |
| 20260502031017 | 20 | 0 | 0.0 | 0.0 | 0.00 | 0.00 | 0.00 | 90 | 1010.7 |
| 20260502030517 | 20 | 0 | 0.0 | 0.0 | 0.00 | 0.00 | 0.00 | 89 | 1010.7 |
| 20260502030042 | 20 | 0 | 0.0 | 0.0 | 0.00 | 0.00 | 0.00 | 89 | 1010.7 |
| 20260502025517 | 20 | 0 | 0.0 | 0.0 | 0.00 | 0.00 | 0.00 | 87 | 1010.7 |
| 20260502025016 | 21 | 0 | 0.0 | 0.0 | 0.00 | 0.00 | 0.00 | 86 | 1010.8 |
| 20260502024541 | 21 | 0 | 0.0 | 0.0 | 0.00 | 0.00 | 0.00 | 87 | 1010.8 |
| 20260502024017 | 22 | 0 | 0.0 | 0.0 | 0.00 | 0.00 | 0.00 | 86 | 1010.7 |
| 20260502023520 | 22 | 0 | 0.0 | 0.0 | 0.00 | 0.00 | 0.00 | 86 | 1010.7 |
| 20260502023051 | 22 | 0 | 0.0 | 0.0 | 0.00 | 0.00 | 0.00 | 87 | 1010.8 |
| 20260502022517 | 22 | 0 | 0.0 | 0.0 | 0.00 | 0.00 | 0.00 | 87 | 1010.8 |
| 20260502022016 | 22 | 0 | 0.0 | 0.0 | 0.00 | 0.00 | 0.00 | 86 | 1010.9 |
| 20260502021535 | 22 | 0 | 0.0 | 0.0 | 0.00 | 0.00 | 0.00 | 85 | 1010.9 |
| 20260502021018 | 22 | 0 | 0.0 | 1.6 | 0.00 | 0.00 | 0.00 | 85 | 1010.8 |
| 20260502020517 | 22 | 0 | 0.0 | 1.6 | 0.00 | 0.00 | 0.00 | 84 | 1010.6 |
| 20260502020032 | 22 | 0 | 0.0 | 3.2 | 0.00 | 0.00 | 0.00 | 84 | 1010.6 |
| 20260502015517 | 22 | 0 | 0.0 | 3.2 | 0.00 | 0.00 | 0.00 | 84 | 1010.7 |
| 20260502015019 | 22 | 0 | 1.6 | 4.8 | 0.00 | 0.00 | 0.00 | 83 | 1010.6 |
| 20260502014538 | 22 | 271 | 1.6 | 4.8 | 0.00 | 0.00 | 0.00 | 83 | 1010.6 |
| 20260502014019 | 23 | 271 | 1.6 | 6.4 | 0.00 | 0.00 | 0.00 | 82 | 1010.7 |
| 20260502013516 | 23 | 271 | 1.6 | 6.4 | 0.00 | 0.00 | 0.00 | 82 | 1010.6 |
| 20260502013040 | 23 | 276 | 1.6 | 9.7 | 0.00 | 0.00 | 0.00 | 81 | 1010.6 |
| 20260502012520 | 23 | 275 | 3.2 | 9.7 | 0.00 | 0.00 | 0.00 | 81 | 1010.4 |
| 20260502012016 | 23 | 274 | 4.8 | 9.7 | 0.00 | 0.00 | 0.00 | 80 | 1010.5 |
| 20260502011536 | 23 | 265 | 4.8 | 11.3 | 0.00 | 0.00 | 0.00 | 79 | 1010.5 |
| 20260502011017 | 23 | 268 | 6.4 | 11.3 | 0.00 | 0.00 | 0.00 | 79 | 1010.4 |
| 20260502010519 | 23 | 268 | 4.8 | 11.3 | 0.00 | 0.00 | 0.00 | 78 | 1010.4 |
| 20260502010036 | 23 | 280 | 4.8 | 11.3 | 0.00 | 0.00 | 0.00 | 77 | 1010.5 |
| 20260502005522 | 24 | 259 | 6.4 | 11.3 | 0.00 | 0.00 | 0.00 | 76 | 1010.5 |
| 20260502005017 | 24 | 250 | 4.8 | 14.5 | 0.00 | 0.00 | 0.00 | 75 | 1010.4 |
| 20260502004534 | 24 | 288 | 4.8 | 14.5 | 0.00 | 0.00 | 0.00 | 73 | 1010.3 |
| 20260502004016 | 24 | 263 | 8.0 | 14.5 | 0.00 | 0.00 | 0.00 | 73 | 1010.3 |
| 20260502003517 | 24 | 281 | 8.0 | 14.5 | 0.00 | 0.00 | 0.00 | 72 | 1010.3 |
| 20260502003041 | 25 | 279 | 6.4 | 16.1 | 0.00 | 0.00 | 0.00 | 70 | 1010.2 |
| 20260502002519 | 25 | 255 | 6.4 | 16.1 | 0.00 | 0.00 | 0.00 | 69 | 1010.2 |
| 20260502002021 | 25 | 300 | 8.0 | 16.1 | 0.00 | 0.00 | 0.00 | 68 | 1010.0 |
| 20260502001538 | 25 | 259 | 8.0 | 17.7 | 0.00 | 0.00 | 0.00 | 68 | 1010.0 |
| 20260502001021 | 25 | 271 | 8.0 | 17.7 | 0.00 | 0.00 | 0.00 | 66 | 1010.0 |
| 20260502000516 | 26 | 278 | 11.3 | 22.5 | 0.00 | 0.00 | 0.00 | 65 | 1009.8 |
| 20260502000059 | 26 | 258 | 11.3 | 22.5 | 0.00 | 0.00 | 0.00 | 65 | 1009.7 |
| 20260501235519 | 26 | 271 | 12.9 | 19.3 | 0.00 | 0.00 | 0.00 | 64 | 1009.6 |
| 20260501235024 | 26 | 265 | 11.3 | 22.5 | 0.00 | 0.00 | 0.00 | 63 | 1009.5 |
| 20260501234536 | 26 | 267 | 11.3 | 27.4 | 0.00 | 0.00 | 0.00 | 62 | 1009.4 |
| 20260501234020 | 26 | 261 | 14.5 | 27.4 | 0.00 | 0.00 | 0.00 | 61 | 1009.4 |
| 20260501233517 | 27 | 277 | 16.1 | 24.1 | 0.00 | 0.00 | 0.00 | 59 | 1009.2 |
| 20260501233040 | 27 | 264 | 14.5 | 24.1 | 0.00 | 0.00 | 0.00 | 59 | 1009.2 |
| 20260501232518 | 27 | 284 | 16.1 | 24.1 | 0.00 | 0.00 | 0.00 | 58 | 1009.2 |
| 20260501232020 | 27 | 268 | 14.5 | 22.5 | 0.00 | 0.00 | 0.00 | 56 | 1009.1 |
| 20260501231540 | 27 | 259 | 11.3 | 22.5 | 0.00 | 0.00 | 0.00 | 55 | 1008.9 |
| 20260501231019 | 28 | 287 | 11.3 | 19.3 | 0.00 | 0.00 | 0.00 | 53 | 1008.9 |
| 20260501230519 | 28 | 276 | 12.9 | 22.5 | 0.00 | 0.00 | 0.00 | 53 | 1008.9 |
| 20260501230040 | 28 | 261 | 14.5 | 24.1 | 0.00 | 0.00 | 0.00 | 52 | 1008.7 |
| 20260501225517 | 28 | 274 | 14.5 | 24.1 | 0.00 | 0.00 | 0.00 | 52 | 1008.7 |
| 20260501225016 | 28 | 263 | 12.9 | 24.1 | 0.00 | 0.00 | 0.00 | 53 | 1008.7 |
| 20260501224559 | 28 | 265 | 12.9 | 24.1 | 0.00 | 0.00 | 0.00 | 53 | 1008.6 |
| 20260501224016 | 28 | 265 | 12.9 | 22.5 | 0.00 | 0.00 | 0.00 | 53 | 1008.6 |